Vorticity
7 7 6 5 5 5 6 6 6 5 4 6 7 7 7 7 7 7 7 5 3 3 7 12 15 16 18 16 13 13 13 11 10 10 9 8 9 9 9 8 7 8
6 6 6 5 5 5 5 5 5 5 5 6 7 7 6 7 7 6 7 6 3 3 5 11 15 16 17 16 13 13 14 12 10 10 9 8 8 9 9 9 8 8
6 6 6 5 6 5 5 5 5 5 6 7 7 7 6 7 7 7 7 7 4 3 4 9 15 16 15 15 13 12 15 13 10 10 8 8 9 8 9 10 9 9
7 7 7 6 6 6 6 6 7 7 7 8 7 6 6 7 7 7 7 8 6 3 3 8 15 17 15 14 12 11 15 15 11 10 8 7 9 8 8 10 10 9
8 8 8 8 8 8 8 8 8 8 7 6 6 5 6 6 6 6 7 7 7 4 3 7 13 16 15 14 12 9 13 17 12 9 8 7 9 8 8 9 10 10
7 7 6 7 7 6 6 7 6 7 6 5 5 5 6 6 5 7 7 8 8 5 3 6 12 16 16 14 12 8 12 18 15 9 8 8 8 9 7 8 10 11
4 5 5 4 5 4 5 5 4 4 5 4 5 6 7 6 6 7 7 7 8 5 4 6 10 14 16 15 12 7 10 18 16 9 8 8 8 9 8 8 9 10
6 5 5 3 3 4 4 5 5 6 7 6 6 8 8 7 8 7 7 8 8 5 4 6 9 13 15 16 13 7 8 17 17 10 8 8 8 9 8 8 9 9
26 25 24 22 20 17 14 12 10 10 11 11 11 13 13 11 10 8 8 8 7 6 5 5 8 12 15 17 14 7 6 15 18 12 8 7 8 9 9 8 8 9
26 26 27 29 30 31 31 28 24 20 16 14 13 16 16 13 11 9 9 8 7 6 5 6 8 12 16 17 13 7 6 13 18 14 8 7 8 9 9 9 8 9
15 15 15 16 17 20 24 28 30 29 25 20 18 17 17 15 13 10 9 8 7 7 5 7 10 12 16 17 13 8 6 10 18 16 9 7 8 9 9 9 9 10
19 20 20 20 19 18 18 20 24 25 25 24 22 20 17 16 15 12 10 8 8 9 9 9 11 13 16 17 11 8 6 9 17 18 11 8 8 8 10 9 9 10
19 21 22 23 24 24 23 23 24 24 22 21 21 21 19 16 15 13 11 9 9 12 12 11 12 14 17 16 10 7 7 8 15 19 13 8 7 7 9 11 10 10
19 20 21 22 23 25 25 25 26 27 24 19 17 19 19 17 16 15 13 11 10 13 15 13 12 15 16 13 8 7 8 8 13 19 16 8 7 8 9 10 10 10
20 20 21 22 23 25 27 27 28 29 27 21 16 17 18 18 17 15 14 14 12 13 16 14 12 15 14 11 7 5 8 9 11 18 18 9 6 9 9 10 10 10
20 19 19 21 24 27 31 32 33 32 30 25 17 13 14 17 18 15 14 16 14 10 13 13 13 15 14 11 8 6 9 10 10 17 19 11 7 9 10 10 9 9
18 18 18 19 22 27 34 39 41 39 33 26 18 13 12 13 15 17 17 16 13 8 11 16 15 13 12 13 11 9 11 11 9 16 19 11 7 9 10 10 10 9
16 16 17 19 22 27 34 42 50 45 32 24 18 13 14 13 11 16 20 14 8 10 15 17 16 13 11 13 13 10 12 12 9 14 19 12 7 10 11 11 10 10
14 16 18 20 21 25 29 39 52 47 29 24 22 15 17 18 11 16 25 16 6 12 16 10 11 16 14 11 12 12 13 12 9 13 17 12 8 10 12 11 10 10
16 17 19 20 18 17 19 30 46 41 22 18 19 16 18 21 17 20 28 20 7 12 17 8 5 14 17 14 15 17 16 12 9 13 17 12 9 11 12 11 10 9
19 17 19 22 17 10 11 22 37 39 30 25 21 15 15 20 23 20 19 18 9 6 14 14 8 11 16 19 20 18 16 13 8 11 16 12 10 11 11 12 11 9
21 17 20 24 16 10 13 20 28 34 35 33 31 25 17 21 28 15 6 19 18 3 7 17 18 14 14 19 22 16 13 12 8 10 15 12 11 13 12 12 11 9
20 18 23 25 15 11 14 17 23 31 29 24 27 31 23 24 30 14 2 18 22 5 3 15 22 18 12 15 21 17 12 11 8 11 14 10 11 14 12 12 12 9
17 17 25 26 14 10 14 13 17 28 31 22 20 27 25 23 26 18 11 18 17 6 5 11 19 21 12 10 17 17 14 10 7 11 14 9 11 15 13 12 11 9
15 16 24 25 11 5 14 18 17 24 33 27 21 25 28 23 18 15 17 19 12 5 3 4 15 22 14 10 18 19 14 10 8 11 13 10 11 14 13 12 11 9
15 17 21 21 10 3 12 21 21 25 33 32 24 23 28 29 19 9 11 17 15 12 7 2 11 21 17 15 20 18 13 9 9 12 12 10 12 14 13 12 11 9
Height
5513 5509 5504 5500 5496 5492 5487 5484 5480 5477 5473 5469 5465 5462 5458 5454 5450 5446 5443 5439 5435 5431 5426 5422 5419 5416 5414 5411 5409 5407 5405 5403 5401 5399 5398 5396 5394 5392 5390 5387 5385 5383
5504 5499 5495 5491 5486 5482 5478 5474 5471 5467 5464 5460 5456 5453 5449 5446 5442 5438 5435 5431 5427 5423 5419 5415 5412 5409 5406 5404 5402 5400 5398 5396 5394 5393 5391 5390 5388 5386 5384 5382 5380 5378
5493 5489 5484 5480 5476 5472 5468 5464 5461 5457 5454 5450 5447 5444 5440 5437 5433 5430 5427 5423 5419 5416 5412 5408 5404 5401 5399 5396 5395 5393 5391 5389 5387 5386 5385 5383 5382 5381 5379 5377 5375 5373
5482 5478 5473 5469 5465 5461 5457 5454 5451 5447 5444 5440 5436 5433 5431 5427 5424 5421 5418 5415 5411 5408 5404 5401 5397 5394 5391 5389 5387 5385 5383 5382 5380 5379 5378 5377 5375 5374 5373 5371 5370 5368
5471 5466 5462 5458 5454 5450 5446 5443 5440 5436 5433 5429 5426 5423 5420 5417 5414 5411 5408 5406 5403 5399 5396 5393 5389 5386 5383 5381 5379 5378 5376 5374 5373 5372 5371 5370 5368 5368 5366 5365 5364 5362
5460 5455 5450 5446 5442 5438 5435 5432 5428 5424 5421 5418 5415 5412 5410 5407 5404 5401 5398 5396 5394 5391 5387 5384 5381 5378 5376 5374 5372 5370 5368 5367 5366 5364 5364 5362 5361 5361 5360 5359 5358 5357
5448 5443 5438 5433 5429 5426 5422 5419 5415 5412 5408 5405 5403 5401 5398 5396 5393 5390 5388 5386 5384 5382 5379 5376 5373 5370 5368 5366 5364 5363 5361 5359 5358 5357 5356 5355 5354 5354 5353 5352 5351 5350
5435 5429 5424 5419 5415 5411 5408 5404 5401 5398 5395 5391 5390 5388 5386 5384 5382 5379 5377 5375 5373 5372 5369 5367 5364 5362 5360 5358 5356 5355 5353 5352 5351 5350 5349 5348 5347 5347 5346 5345 5345 5344
5420 5415 5409 5405 5400 5396 5393 5390 5386 5384 5381 5378 5376 5375 5373 5371 5370 5368 5366 5364 5362 5361 5359 5357 5355 5353 5351 5350 5349 5347 5346 5344 5343 5342 5342 5341 5341 5340 5339 5338 5338 5337
5406 5401 5395 5391 5386 5382 5378 5375 5371 5369 5367 5364 5363 5362 5361 5359 5357 5356 5354 5353 5352 5350 5349 5347 5346 5344 5343 5342 5341 5339 5338 5337 5336 5335 5335 5334 5334 5333 5332 5332 5332 5331
5393 5388 5383 5377 5373 5368 5364 5360 5357 5354 5352 5351 5349 5349 5349 5347 5346 5344 5343 5342 5341 5339 5338 5337 5336 5335 5334 5333 5332 5331 5330 5330 5329 5328 5327 5327 5327 5326 5326 5325 5325 5325
5379 5374 5369 5364 5359 5355 5351 5346 5342 5340 5338 5336 5336 5336 5335 5335 5334 5333 5332 5331 5330 5329 5328 5327 5326 5325 5325 5324 5324 5323 5323 5322 5321 5321 5320 5320 5320 5320 5319 5319 5319 5318
5364 5358 5354 5349 5344 5340 5336 5332 5328 5326 5324 5322 5322 5322 5322 5322 5322 5321 5321 5321 5320 5319 5318 5317 5316 5316 5316 5316 5315 5315 5315 5314 5314 5314 5313 5313 5313 5313 5313 5313 5312 5312
5350 5344 5338 5334 5329 5325 5321 5318 5314 5312 5310 5309 5308 5309 5309 5309 5309 5309 5310 5310 5310 5309 5309 5308 5308 5307 5307 5307 5307 5307 5307 5307 5307 5306 5306 5306 5306 5306 5306 5306 5306 5306
5338 5332 5326 5320 5315 5311 5307 5303 5300 5298 5297 5296 5296 5296 5296 5297 5297 5297 5298 5299 5299 5299 5299 5299 5299 5299 5298 5298 5299 5299 5299 5299 5299 5299 5299 5300 5300 5299 5299 5299 5299 5299
5327 5321 5315 5309 5303 5298 5293 5290 5287 5285 5284 5284 5284 5284 5284 5285 5285 5286 5287 5288 5288 5289 5289 5290 5290 5290 5289 5289 5290 5291 5291 5292 5291 5292 5292 5292 5293 5292 5292 5292 5293 5293
5315 5310 5304 5298 5292 5286 5281 5277 5274 5272 5272 5272 5272 5272 5273 5273 5274 5275 5276 5277 5277 5278 5279 5280 5281 5280 5280 5281 5281 5282 5283 5284 5284 5284 5285 5285 5285 5285 5285 5285 5286 5286
5304 5298 5293 5287 5280 5275 5270 5266 5262 5261 5261 5261 5261 5261 5261 5262 5263 5264 5265 5267 5268 5269 5270 5270 5271 5271 5271 5272 5273 5274 5275 5276 5276 5276 5277 5278 5278 5278 5278 5278 5279 5279
5295 5289 5283 5277 5271 5265 5260 5256 5252 5251 5250 5250 5250 5250 5250 5252 5253 5253 5255 5257 5258 5259 5260 5261 5261 5262 5262 5263 5264 5265 5267 5268 5269 5269 5269 5270 5271 5271 5271 5272 5272 5272
5286 5280 5275 5269 5263 5257 5252 5248 5244 5242 5241 5240 5240 5239 5240 5242 5242 5244 5245 5247 5249 5250 5251 5252 5252 5252 5254 5255 5255 5257 5258 5260 5261 5262 5262 5263 5263 5264 5264 5265 5265 5265
5277 5272 5266 5261 5256 5250 5245 5241 5237 5234 5232 5231 5230 5230 5231 5232 5232 5233 5235 5236 5239 5241 5242 5243 5243 5244 5245 5246 5247 5249 5250 5252 5254 5255 5255 5256 5256 5256 5257 5258 5258 5259
5269 5263 5258 5253 5248 5243 5239 5234 5230 5226 5224 5222 5221 5221 5222 5223 5223 5224 5225 5227 5230 5232 5233 5234 5234 5235 5237 5238 5239 5241 5243 5244 5246 5247 5248 5249 5249 5249 5250 5251 5252 5253
5261 5255 5250 5245 5241 5236 5231 5227 5222 5219 5216 5214 5213 5213 5213 5214 5214 5215 5217 5219 5221 5223 5225 5226 5226 5227 5229 5230 5232 5234 5235 5237 5238 5240 5241 5242 5242 5242 5243 5244 5246 5247
5253 5247 5242 5237 5233 5229 5224 5220 5215 5211 5209 5207 5206 5205 5205 5205 5206 5207 5209 5211 5213 5215 5217 5218 5219 5220 5221 5223 5224 5226 5228 5230 5231 5233 5234 5235 5236 5236 5237 5238 5240 5241
5245 5239 5234 5229 5225 5221 5217 5212 5208 5204 5201 5199 5198 5197 5197 5197 5198 5200 5202 5204 5206 5207 5209 5211 5211 5212 5214 5216 5217 5219 5221 5223 5225 5226 5227 5228 5229 5230 5230 5231 5233 5235
5237 5232 5226 5222 5218 5214 5210 5205 5200 5196 5193 5191 5190 5190 5190 5191 5192 5194 5195 5197 5199 5200 5202 5204 5204 5205 5207 5209 5210 5212 5214 5216 5218 5219 5220 5221 5223 5224 5224 5226 5227 5229